contact:dominique.lefevre@mio.osupytheas.fr, maurice.libes@osupytheas.fr, didier.mallarino@osupytheas.fr
Project:EMSO http://www.emso-fr.org/EMSO-France
Depth: 2436.0 m
Title:EMSO Ligure Ouest : Data MII capteur MICROCAT
DateTime_Computer,Latitude,Longitude,Temperature,Conductivity,Pressure,DateTime_Instrument
DateTime_Computer,Latitude,Longitude,degC,S m-1,dbar,DateTime_Instrument
2024-05-01T00:00:23Z,42.805,6.029,13.3068,4.60195,2470.973,2024-5-01T02:03:05Z
2024-05-01T00:03:27Z,42.805,6.029,13.3078,4.60204,2470.95,2024-5-01T02:06:08Z
2024-05-01T00:06:30Z,42.805,6.029,13.3074,4.60193,2470.964,2024-5-01T02:09:11Z
2024-05-01T00:09:33Z,42.805,6.029,13.3063,4.60211,2470.95,2024-5-01T02:12:14Z
2024-05-01T00:12:36Z,42.805,6.029,13.3080,4.60215,2470.94,2024-5-01T02:15:17Z
2024-05-01T00:15:39Z,42.805,6.029,13.3073,4.60203,2470.95,2024-5-01T02:18:20Z
2024-05-01T00:18:42Z,42.805,6.029,13.3094,4.60210,2470.987,2024-5-01T02:21:23Z
2024-05-01T00:21:45Z,42.805,6.029,13.3079,4.60159,2470.973,2024-5-01T02:24:26Z
2024-05-01T00:24:48Z,42.805,6.029,13.3078,4.60213,2470.95,2024-5-01T02:27:30Z
2024-05-01T00:27:51Z,42.805,6.029,13.3084,4.60215,2470.973,2024-5-01T02:30:33Z
2024-05-01T00:30:54Z,42.805,6.029,13.3071,4.60219,2470.95,2024-5-01T02:33:36Z
2024-05-01T00:33:57Z,42.805,6.029,13.3073,4.60167,2470.94,2024-5-01T02:36:39Z
2024-05-01T00:37:00Z,42.805,6.029,13.3077,4.60160,2470.987,2024-5-01T02:39:42Z
2024-05-01T00:40:03Z,42.805,6.029,13.3066,4.60162,2470.987,2024-5-01T02:42:45Z
2024-05-01T00:43:07Z,42.805,6.029,13.3058,4.60165,2470.95,2024-5-01T02:45:48Z
2024-05-01T00:46:10Z,42.805,6.029,13.3065,4.60170,2470.987,2024-5-01T02:48:51Z
2024-05-01T00:49:13Z,42.805,6.029,13.3069,4.60143,2470.997,2024-5-01T02:51:54Z
2024-05-01T00:52:16Z,42.805,6.029,13.3085,4.60168,2470.964,2024-5-01T02:54:57Z
2024-05-01T00:55:19Z,42.805,6.029,13.3084,4.60186,2470.987,2024-5-01T02:58:00Z
2024-05-01T00:58:22Z,42.805,6.029,13.3070,4.60190,2470.973,2024-5-01T03:01:03Z
2024-05-01T01:01:25Z,42.805,6.029,13.3070,4.60198,2470.94,2024-5-01T03:04:06Z
2024-05-01T01:04:28Z,42.805,6.029,13.3061,4.60170,2470.964,2024-5-01T03:07:09Z
2024-05-01T01:07:31Z,42.805,6.029,13.3065,4.60187,2470.987,2024-5-01T03:10:13Z
2024-05-01T01:10:34Z,42.805,6.029,13.3082,4.60164,2470.904,2024-5-01T03:13:16Z
2024-05-01T01:13:37Z,42.805,6.029,13.3076,4.60147,2470.927,2024-5-01T03:16:19Z
2024-05-01T01:16:40Z,42.805,6.029,13.3063,4.60155,2470.95,2024-5-01T03:19:22Z
2024-05-01T01:19:43Z,42.805,6.029,13.3064,4.60160,2470.95,2024-5-01T03:22:25Z
2024-05-01T01:22:46Z,42.805,6.029,13.3073,4.60146,2470.94,2024-5-01T03:25:28Z
2024-05-01T01:25:50Z,42.805,6.029,13.3063,4.60152,2470.973,2024-5-01T03:28:31Z
2024-05-01T01:28:53Z,42.805,6.029,13.3063,4.60171,2470.927,2024-5-01T03:31:34Z
2024-05-01T01:31:56Z,42.805,6.029,13.3061,4.60153,2471.01,2024-5-01T03:34:37Z
2024-05-01T01:34:59Z,42.805,6.029,13.3070,4.60141,2470.964,2024-5-01T03:37:40Z
2024-05-01T01:38:02Z,42.805,6.029,13.3061,4.60160,2470.94,2024-5-01T03:40:43Z
2024-05-01T01:41:05Z,42.805,6.029,13.3056,4.60156,2470.987,2024-5-01T03:43:46Z
2024-05-01T01:44:08Z,42.805,6.029,13.3073,4.60152,2470.95,2024-5-01T03:46:50Z
2024-05-01T01:47:11Z,42.805,6.029,13.3067,4.60150,2470.964,2024-5-01T03:49:53Z
2024-05-01T01:50:14Z,42.805,6.029,13.3071,4.60163,2470.94,2024-5-01T03:52:56Z
2024-05-01T01:53:17Z,42.805,6.029,13.3066,4.60156,2470.964,2024-5-01T03:55:59Z
2024-05-01T01:56:20Z,42.805,6.029,13.3078,4.60146,2470.95,2024-5-01T03:59:02Z
2024-05-01T01:59:23Z,42.805,6.029,13.3058,4.60144,2470.94,2024-5-01T04:02:05Z
2024-05-01T02:02:26Z,42.805,6.029,13.3069,4.60156,2470.927,2024-5-01T04:05:08Z
2024-05-01T02:05:29Z,42.805,6.029,13.3071,4.60154,2470.927,2024-5-01T04:08:11Z
2024-05-01T02:08:33Z,42.805,6.029,13.3061,4.60155,2470.95,2024-5-01T04:11:14Z
2024-05-01T02:11:36Z,42.805,6.029,13.3069,4.60160,2470.95,2024-5-01T04:14:17Z
2024-05-01T02:14:39Z,42.805,6.029,13.3066,4.60152,2470.95,2024-5-01T04:17:20Z
2024-05-01T02:17:42Z,42.805,6.029,13.3068,4.60150,2470.927,2024-5-01T04:20:23Z
2024-05-01T02:20:45Z,42.805,6.029,13.3071,4.60157,2470.927,2024-5-01T04:23:26Z
2024-05-01T02:23:48Z,42.805,6.029,13.3068,4.60152,2470.95,2024-5-01T04:26:29Z
2024-05-01T02:26:51Z,42.805,6.029,13.3072,4.60160,2470.964,2024-5-01T04:29:32Z
2024-05-01T02:29:54Z,42.805,6.029,13.3063,4.60160,2470.927,2024-5-01T04:32:36Z
2024-05-01T02:32:57Z,42.805,6.029,13.3067,4.60155,2470.927,2024-5-01T04:35:39Z
2024-05-01T02:36:00Z,42.805,6.029,13.3067,4.60145,2470.964,2024-5-01T04:38:42Z
2024-05-01T02:39:03Z,42.805,6.029,13.3066,4.60157,2470.94,2024-5-01T04:41:45Z
2024-05-01T02:42:06Z,42.805,6.029,13.3072,4.60157,2470.927,2024-5-01T04:44:48Z
2024-05-01T02:45:09Z,42.805,6.029,13.3063,4.60150,2470.95,2024-5-01T04:47:51Z
2024-05-01T02:48:13Z,42.805,6.029,13.3067,4.60149,2470.927,2024-5-01T04:50:54Z
2024-05-01T02:51:16Z,42.805,6.029,13.3069,4.60157,2470.94,2024-5-01T04:53:57Z
2024-05-01T02:54:19Z,42.805,6.029,13.3069,4.60157,2470.927,2024-5-01T04:57:00Z
2024-05-01T02:57:22Z,42.805,6.029,13.3071,4.60152,2470.94,2024-5-01T05:00:03Z
2024-05-01T03:00:25Z,42.805,6.029,13.3064,4.60153,2470.927,2024-5-01T05:03:06Z
2024-05-01T03:03:28Z,42.805,6.029,13.3069,4.60155,2470.94,2024-5-01T05:06:09Z
2024-05-01T03:06:31Z,42.805,6.029,13.3075,4.60151,2470.927,2024-5-01T05:09:12Z
2024-05-01T03:09:34Z,42.805,6.029,13.3063,4.60150,2470.927,2024-5-01T05:12:16Z
2024-05-01T03:12:37Z,42.805,6.029,13.3069,4.60157,2470.927,2024-5-01T05:15:19Z
2024-05-01T03:15:40Z,42.805,6.029,13.3064,4.60148,2470.917,2024-5-01T05:18:22Z
2024-05-01T03:18:43Z,42.805,6.029,13.3063,4.60155,2470.927,2024-5-01T05:21:25Z
2024-05-01T03:21:46Z,42.805,6.029,13.3067,4.60158,2470.904,2024-5-01T05:24:28Z
2024-05-01T03:24:49Z,42.805,6.029,13.3066,4.60151,2470.94,2024-5-01T05:27:31Z
2024-05-01T03:27:53Z,42.805,6.029,13.3069,4.60154,2470.904,2024-5-01T05:30:34Z
2024-05-01T03:30:56Z,42.805,6.029,13.3060,4.60152,2470.927,2024-5-01T05:33:37Z
2024-05-01T03:33:59Z,42.805,6.029,13.3072,4.60155,2470.917,2024-5-01T05:36:40Z
2024-05-01T03:37:02Z,42.805,6.029,13.3074,4.60150,2470.917,2024-5-01T05:39:43Z
2024-05-01T03:40:05Z,42.805,6.029,13.3070,4.60150,2470.917,2024-5-01T05:42:46Z
2024-05-01T03:43:08Z,42.805,6.029,13.3065,4.60147,2470.904,2024-5-01T05:45:49Z
2024-05-01T03:46:11Z,42.805,6.029,13.3073,4.60152,2470.94,2024-5-01T05:48:53Z
2024-05-01T03:49:14Z,42.805,6.029,13.3070,4.60152,2470.904,2024-5-01T05:51:56Z
2024-05-01T03:52:17Z,42.805,6.029,13.3063,4.60150,2470.88,2024-5-01T05:54:59Z
2024-05-01T03:55:20Z,42.805,6.029,13.3069,4.60149,2470.894,2024-5-01T05:58:02Z
2024-05-01T03:58:23Z,42.805,6.029,13.3063,4.60146,2470.904,2024-5-01T06:01:05Z
2024-05-01T04:01:27Z,42.805,6.029,13.3070,4.60146,2470.894,2024-5-01T06:04:09Z
2024-05-01T04:04:30Z,42.805,6.029,13.3063,4.60148,2470.894,2024-5-01T06:07:12Z
2024-05-01T04:07:33Z,42.805,6.029,13.3058,4.60155,2470.894,2024-5-01T06:10:15Z
2024-05-01T04:10:36Z,42.805,6.029,13.3067,4.60155,2470.871,2024-5-01T06:13:18Z
2024-05-01T04:13:39Z,42.805,6.029,13.3069,4.60156,2470.88,2024-5-01T06:16:21Z
2024-05-01T04:16:43Z,42.805,6.029,13.3080,4.60154,2470.88,2024-5-01T06:19:24Z
2024-05-01T04:19:46Z,42.805,6.029,13.3065,4.60150,2470.88,2024-5-01T06:22:27Z
2024-05-01T04:22:49Z,42.805,6.029,13.3063,4.60145,2470.88,2024-5-01T06:25:30Z
2024-05-01T04:25:52Z,42.805,6.029,13.3060,4.60144,2470.88,2024-5-01T06:28:33Z
2024-05-01T04:28:55Z,42.805,6.029,13.3056,4.60148,2470.843,2024-5-01T06:31:36Z
2024-05-01T04:31:58Z,42.805,6.029,13.3063,4.60145,2470.904,2024-5-01T06:34:39Z
2024-05-01T04:35:01Z,42.805,6.029,13.3078,4.60149,2470.88,2024-5-01T06:37:43Z
2024-05-01T04:38:04Z,42.805,6.029,13.3067,4.60164,2470.894,2024-5-01T06:40:46Z
2024-05-01T04:41:07Z,42.805,6.029,13.3058,4.60156,2470.833,2024-5-01T06:43:49Z
2024-05-01T04:44:10Z,42.805,6.029,13.3066,4.60157,2470.871,2024-5-01T06:46:52Z
2024-05-01T04:47:13Z,42.805,6.029,13.3076,4.60169,2470.857,2024-5-01T06:49:55Z
2024-05-01T04:50:16Z,42.805,6.029,13.3070,4.60153,2470.857,2024-5-01T06:52:58Z
2024-05-01T04:53:20Z,42.805,6.029,13.3072,4.60148,2470.88,2024-5-01T06:56:01Z
2024-05-01T04:56:23Z,42.805,6.029,13.3058,4.60148,2470.88,2024-5-01T06:59:04Z
2024-05-01T04:59:26Z,42.805,6.029,13.3067,4.60169,2470.857,2024-5-01T07:02:07Z
2024-05-01T05:02:29Z,42.805,6.029,13.3068,4.60148,2470.833,2024-5-01T07:05:10Z
2024-05-01T05:05:32Z,42.805,6.029,13.3061,4.60151,2470.871,2024-5-01T07:08:13Z
2024-05-01T05:08:35Z,42.805,6.029,13.3072,4.60159,2470.857,2024-5-01T07:11:16Z
2024-05-01T05:11:38Z,42.805,6.029,13.3073,4.60168,2470.81,2024-5-01T07:14:19Z
2024-05-01T05:14:41Z,42.805,6.029,13.3067,4.60158,2470.871,2024-5-01T07:17:23Z
2024-05-01T05:17:44Z,42.805,6.029,13.3074,4.60160,2470.857,2024-5-01T07:20:26Z
2024-05-01T05:20:47Z,42.805,6.029,13.3044,4.60145,2470.857,2024-5-01T07:23:29Z
2024-05-01T05:23:50Z,42.805,6.029,13.3048,4.60155,2470.81,2024-5-01T07:26:32Z
2024-05-01T05:26:53Z,42.805,6.029,13.3046,4.60157,2470.833,2024-5-01T07:29:35Z
2024-05-01T05:29:57Z,42.805,6.029,13.3039,4.60143,2470.857,2024-5-01T07:32:38Z
2024-05-01T05:33:00Z,42.805,6.029,13.3049,4.60152,2470.857,2024-5-01T07:35:41Z
2024-05-01T05:36:03Z,42.805,6.029,13.3065,4.60144,2470.847,2024-5-01T07:38:44Z
2024-05-01T05:39:06Z,42.805,6.029,13.3046,4.60162,2470.857,2024-5-01T07:41:47Z
2024-05-01T05:42:09Z,42.805,6.029,13.3041,4.60143,2470.81,2024-5-01T07:44:50Z
2024-05-01T05:45:12Z,42.805,6.029,13.3045,4.60150,2470.833,2024-5-01T07:47:53Z
2024-05-01T05:48:15Z,42.805,6.029,13.3068,4.60157,2470.857,2024-5-01T07:50:56Z
2024-05-01T05:51:18Z,42.805,6.029,13.3039,4.60143,2470.857,2024-5-01T07:54:00Z
2024-05-01T05:54:21Z,42.805,6.029,13.3042,4.60137,2470.833,2024-5-01T07:57:03Z
2024-05-01T05:57:24Z,42.805,6.029,13.3044,4.60139,2470.847,2024-5-01T08:00:06Z
2024-05-01T06:00:28Z,42.805,6.029,13.3040,4.60142,2470.857,2024-5-01T08:03:09Z
2024-05-01T06:03:31Z,42.805,6.029,13.3041,4.60142,2470.871,2024-5-01T08:06:12Z
2024-05-01T06:06:34Z,42.805,6.029,13.3046,4.60160,2470.833,2024-5-01T08:09:16Z
2024-05-01T06:09:37Z,42.805,6.029,13.3043,4.60170,2470.847,2024-5-01T08:12:19Z
2024-05-01T06:12:40Z,42.805,6.029,13.3043,4.60147,2470.857,2024-5-01T08:15:22Z
2024-05-01T06:15:43Z,42.805,6.029,13.3043,4.60143,2470.857,2024-5-01T08:18:25Z
2024-05-01T06:18:46Z,42.805,6.029,13.3043,4.60152,2470.833,2024-5-01T08:21:28Z
2024-05-01T06:21:49Z,42.805,6.029,13.3039,4.60140,2470.857,2024-5-01T08:24:31Z
2024-05-01T06:24:53Z,42.805,6.029,13.3040,4.60139,2470.81,2024-5-01T08:27:34Z
2024-05-01T06:27:56Z,42.805,6.029,13.3042,4.60136,2470.824,2024-5-01T08:30:37Z
2024-05-01T06:30:59Z,42.805,6.029,13.3042,4.60136,2470.847,2024-5-01T08:33:40Z
2024-05-01T06:34:02Z,42.805,6.029,13.3042,4.60134,2470.833,2024-5-01T08:36:43Z
2024-05-01T06:37:05Z,42.805,6.029,13.3039,4.60132,2470.81,2024-5-01T08:39:46Z
2024-05-01T06:40:08Z,42.805,6.029,13.3040,4.60132,2470.81,2024-5-01T08:42:49Z
2024-05-01T06:43:11Z,42.805,6.029,13.3043,4.60137,2470.81,2024-5-01T08:45:52Z
2024-05-01T06:46:14Z,42.805,6.029,13.3039,4.60133,2470.81,2024-5-01T08:48:56Z
2024-05-01T06:49:17Z,42.805,6.029,13.3043,4.60134,2470.81,2024-5-01T08:51:59Z
2024-05-01T06:52:20Z,42.805,6.029,13.3039,4.60133,2470.8,2024-5-01T08:55:02Z
2024-05-01T06:55:23Z,42.805,6.029,13.3043,4.60135,2470.81,2024-5-01T08:58:05Z
2024-05-01T06:58:26Z,42.805,6.029,13.3041,4.60134,2470.8,2024-5-01T09:01:08Z
2024-05-01T07:01:29Z,42.805,6.029,13.3043,4.60135,2470.787,2024-5-01T09:04:11Z
2024-05-01T07:04:32Z,42.805,6.029,13.3043,4.60137,2470.81,2024-5-01T09:07:14Z
2024-05-01T07:07:36Z,42.805,6.029,13.3042,4.60133,2470.796,2024-5-01T09:10:17Z
2024-05-01T07:10:39Z,42.805,6.029,13.3041,4.60135,2470.787,2024-5-01T09:13:20Z
2024-05-01T07:13:42Z,42.805,6.029,13.3042,4.60135,2470.787,2024-5-01T09:16:23Z
2024-05-01T07:16:45Z,42.805,6.029,13.3039,4.60135,2470.847,2024-5-01T09:19:26Z
2024-05-01T07:19:48Z,42.805,6.029,13.3044,4.60135,2470.81,2024-5-01T09:22:29Z
2024-05-01T07:22:51Z,42.805,6.029,13.3044,4.60134,2470.787,2024-5-01T09:25:32Z
2024-05-01T07:25:54Z,42.805,6.029,13.3040,4.60135,2470.787,2024-5-01T09:28:36Z
2024-05-01T07:28:57Z,42.805,6.029,13.3041,4.60133,2470.787,2024-5-01T09:31:39Z
2024-05-01T07:32:00Z,42.805,6.029,13.3041,4.60135,2470.8,2024-5-01T09:34:42Z
2024-05-01T07:35:03Z,42.805,6.029,13.3042,4.60135,2470.81,2024-5-01T09:37:45Z
2024-05-01T07:38:06Z,42.805,6.029,13.3040,4.60132,2470.833,2024-5-01T09:40:48Z
2024-05-01T07:41:09Z,42.805,6.029,13.3041,4.60132,2470.8,2024-5-01T09:43:51Z
2024-05-01T07:44:13Z,42.805,6.029,13.3041,4.60133,2470.81,2024-5-01T09:46:54Z
2024-05-01T07:47:16Z,42.805,6.029,13.3042,4.60133,2470.824,2024-5-01T09:49:57Z
2024-05-01T07:50:19Z,42.805,6.029,13.3044,4.60132,2470.81,2024-5-01T09:53:00Z
2024-05-01T07:53:22Z,42.805,6.029,13.3041,4.60131,2470.81,2024-5-01T09:56:03Z
2024-05-01T07:56:25Z,42.805,6.029,13.3041,4.60130,2470.81,2024-5-01T09:59:06Z
2024-05-01T07:59:28Z,42.805,6.029,13.3035,4.60131,2470.8,2024-5-01T10:02:09Z
2024-05-01T08:02:30Z,42.805,6.029,13.3043,4.60130,2470.777,2024-5-01T10:05:11Z
2024-05-01T08:05:33Z,42.805,6.029,13.3036,4.60129,2470.787,2024-5-01T10:08:14Z
2024-05-01T08:08:36Z,42.805,6.029,13.3039,4.60132,2470.787,2024-5-01T10:11:17Z
2024-05-01T08:11:39Z,42.805,6.029,13.3043,4.60131,2470.787,2024-5-01T10:14:20Z
2024-05-01T08:14:42Z,42.805,6.029,13.3041,4.60132,2470.787,2024-5-01T10:17:24Z
2024-05-01T08:17:45Z,42.805,6.029,13.3039,4.60132,2470.833,2024-5-01T10:20:27Z
2024-05-01T08:20:48Z,42.805,6.029,13.3040,4.60130,2470.81,2024-5-01T10:23:30Z
2024-05-01T08:23:51Z,42.805,6.029,13.3041,4.60130,2470.81,2024-5-01T10:26:33Z
2024-05-01T08:26:54Z,42.805,6.029,13.3036,4.60132,2470.787,2024-5-01T10:29:36Z
2024-05-01T08:29:58Z,42.805,6.029,13.3041,4.60132,2470.787,2024-5-01T10:32:39Z
2024-05-01T08:33:01Z,42.805,6.029,13.3043,4.60133,2470.763,2024-5-01T10:35:42Z
2024-05-01T08:36:04Z,42.805,6.029,13.3042,4.60132,2470.787,2024-5-01T10:38:45Z
2024-05-01T08:39:07Z,42.805,6.029,13.3039,4.60132,2470.81,2024-5-01T10:41:48Z
2024-05-01T08:42:10Z,42.805,6.029,13.3041,4.60132,2470.81,2024-5-01T10:44:51Z
2024-05-01T08:45:13Z,42.805,6.029,13.3040,4.60132,2470.787,2024-5-01T10:47:54Z
2024-05-01T08:48:16Z,42.805,6.029,13.3041,4.60132,2470.8,2024-5-01T10:50:57Z
2024-05-01T08:51:19Z,42.805,6.029,13.3040,4.60133,2470.8,2024-5-01T10:54:01Z
2024-05-01T08:54:22Z,42.805,6.029,13.3042,4.60135,2470.81,2024-5-01T10:57:04Z
2024-05-01T08:57:25Z,42.805,6.029,13.3041,4.60134,2470.787,2024-5-01T11:00:07Z
2024-05-01T09:00:28Z,42.805,6.029,13.3039,4.60133,2470.8,2024-5-01T11:03:10Z
2024-05-01T09:03:31Z,42.805,6.029,13.3039,4.60132,2470.787,2024-5-01T11:06:13Z
2024-05-01T09:06:34Z,42.805,6.029,13.3041,4.60132,2470.787,2024-5-01T11:09:16Z
2024-05-01T09:09:38Z,42.805,6.029,13.3041,4.60133,2470.81,2024-5-01T11:12:19Z
2024-05-01T09:12:41Z,42.805,6.029,13.3041,4.60132,2470.8,2024-5-01T11:15:22Z
2024-05-01T09:15:44Z,42.805,6.029,13.3040,4.60131,2470.777,2024-5-01T11:18:25Z
2024-05-01T09:18:47Z,42.805,6.029,13.3039,4.60132,2470.81,2024-5-01T11:21:28Z
2024-05-01T09:21:50Z,42.805,6.029,13.3039,4.60133,2470.833,2024-5-01T11:24:31Z
2024-05-01T09:24:53Z,42.805,6.029,13.3043,4.60131,2470.763,2024-5-01T11:27:34Z
2024-05-01T09:27:56Z,42.805,6.029,13.3043,4.60133,2470.787,2024-5-01T11:30:38Z
2024-05-01T09:30:59Z,42.805,6.029,13.3037,4.60131,2470.777,2024-5-01T11:33:41Z
2024-05-01T09:34:02Z,42.805,6.029,13.3041,4.60132,2470.8,2024-5-01T11:36:44Z
2024-05-01T09:37:05Z,42.805,6.029,13.3043,4.60134,2470.8,2024-5-01T11:39:47Z
2024-05-01T09:40:08Z,42.805,6.029,13.3041,4.60132,2470.787,2024-5-01T11:42:50Z
2024-05-01T09:43:12Z,42.805,6.029,13.3042,4.60135,2470.8,2024-5-01T11:45:53Z
2024-05-01T09:46:15Z,42.805,6.029,13.3039,4.60133,2470.824,2024-5-01T11:48:56Z
2024-05-01T10:13:08Z,42.805,6.029,13.3040,4.60133,2470.787,2024-5-01T12:15:50Z
2024-05-01T10:16:11Z,42.805,6.029,13.3043,4.60132,2470.824,2024-5-01T12:18:53Z
2024-05-01T10:19:14Z,42.805,6.029,13.3042,4.60133,2470.833,2024-5-01T12:21:56Z
2024-05-01T10:22:17Z,42.805,6.029,13.3041,4.60132,2470.81,2024-5-01T12:24:59Z
2024-05-01T10:25:21Z,42.805,6.029,13.3043,4.60134,2470.763,2024-5-01T12:28:02Z
2024-05-01T10:28:24Z,42.805,6.029,13.3042,4.60135,2470.787,2024-5-01T12:31:05Z
2024-05-01T10:31:27Z,42.805,6.029,13.3041,4.60135,2470.833,2024-5-01T12:34:08Z
2024-05-01T10:34:30Z,42.805,6.029,13.3041,4.60136,2470.871,2024-5-01T12:37:11Z
2024-05-01T10:37:33Z,42.805,6.029,13.3043,4.60135,2470.81,2024-5-01T12:40:14Z
2024-05-01T10:40:36Z,42.805,6.029,13.3041,4.60135,2470.787,2024-5-01T12:43:17Z
2024-05-01T10:43:39Z,42.805,6.029,13.3041,4.60135,2470.81,2024-5-01T12:46:21Z
2024-05-01T10:46:42Z,42.805,6.029,13.3041,4.60137,2470.833,2024-5-01T12:49:24Z
2024-05-01T10:49:45Z,42.805,6.029,13.3043,4.60135,2470.81,2024-5-01T12:52:27Z
2024-05-01T10:52:48Z,42.805,6.029,13.3041,4.60135,2470.824,2024-5-01T12:55:30Z
2024-05-01T10:55:51Z,42.805,6.029,13.3043,4.60135,2470.787,2024-5-01T12:58:33Z
2024-05-01T10:58:54Z,42.805,6.029,13.3043,4.60139,2470.81,2024-5-01T13:01:36Z
2024-05-01T11:01:58Z,42.805,6.029,13.3042,4.60134,2470.81,2024-5-01T13:04:39Z
2024-05-01T11:05:01Z,42.805,6.029,13.3045,4.60134,2470.81,2024-5-01T13:07:42Z
2024-05-01T11:08:04Z,42.805,6.029,13.3045,4.60137,2470.81,2024-5-01T13:10:45Z
2024-05-01T11:11:07Z,42.805,6.029,13.3041,4.60135,2470.8,2024-5-01T13:13:48Z
2024-05-01T11:14:10Z,42.805,6.029,13.3044,4.60133,2470.81,2024-5-01T13:16:51Z
2024-05-01T11:17:13Z,42.805,6.029,13.3041,4.60135,2470.81,2024-5-01T13:19:54Z
2024-05-01T11:20:16Z,42.805,6.029,13.3044,4.60147,2470.824,2024-5-01T13:22:58Z
2024-05-01T11:23:19Z,42.805,6.029,13.3046,4.60138,2470.833,2024-5-01T13:26:01Z
2024-05-01T11:26:22Z,42.805,6.029,13.3043,4.60138,2470.824,2024-5-01T13:29:04Z
2024-05-01T11:29:25Z,42.805,6.029,13.3046,4.60144,2470.787,2024-5-01T13:32:07Z
2024-05-01T11:32:28Z,42.805,6.029,13.3041,4.60135,2470.81,2024-5-01T13:35:10Z
2024-05-01T11:35:31Z,42.805,6.029,13.3044,4.60135,2470.796,2024-5-01T13:38:13Z
2024-05-01T11:38:35Z,42.805,6.029,13.3043,4.60135,2470.81,2024-5-01T13:41:16Z
2024-05-01T11:41:38Z,42.805,6.029,13.3042,4.60137,2470.81,2024-5-01T13:44:19Z
2024-05-01T11:44:41Z,42.805,6.029,13.3043,4.60136,2470.824,2024-5-01T13:47:22Z
2024-05-01T11:47:44Z,42.805,6.029,13.3044,4.60135,2470.81,2024-5-01T13:50:25Z
2024-05-01T11:50:47Z,42.805,6.029,13.3043,4.60136,2470.787,2024-5-01T13:53:28Z
2024-05-01T11:53:50Z,42.805,6.029,13.3043,4.60137,2470.787,2024-5-01T13:56:31Z
2024-05-01T11:56:53Z,42.805,6.029,13.3043,4.60138,2470.824,2024-5-01T13:59:34Z
2024-05-01T11:59:56Z,42.805,6.029,13.3041,4.60139,2470.833,2024-5-01T14:02:38Z
2024-05-01T12:02:59Z,42.805,6.029,13.3043,4.60137,2470.82,2024-5-01T14:05:41Z
2024-05-01T12:06:02Z,42.805,6.029,13.3044,4.60143,2470.787,2024-5-01T14:08:44Z
2024-05-01T12:09:05Z,42.805,6.029,13.3046,4.60140,2470.824,2024-5-01T14:11:47Z
2024-05-01T12:12:08Z,42.805,6.029,13.3045,4.60139,2470.81,2024-5-01T14:14:50Z
2024-05-01T12:15:11Z,42.805,6.029,13.3044,4.60146,2470.81,2024-5-01T14:17:53Z
2024-05-01T12:18:15Z,42.805,6.029,13.3042,4.60143,2470.847,2024-5-01T14:20:56Z
2024-05-01T12:21:18Z,42.805,6.029,13.3040,4.60145,2470.824,2024-5-01T14:23:59Z
2024-05-01T12:24:21Z,42.805,6.029,13.3042,4.60144,2470.847,2024-5-01T14:27:02Z
2024-05-01T12:27:24Z,42.805,6.029,13.3042,4.60151,2470.81,2024-5-01T14:30:05Z
2024-05-01T12:30:27Z,42.805,6.029,13.3044,4.60152,2470.787,2024-5-01T14:33:08Z
2024-05-01T12:33:30Z,42.805,6.029,13.3041,4.60149,2470.81,2024-5-01T14:36:11Z
2024-05-01T12:36:33Z,42.805,6.029,13.3042,4.60144,2470.81,2024-5-01T14:39:15Z
2024-05-01T12:39:36Z,42.805,6.029,13.3046,4.60155,2470.773,2024-5-01T14:42:18Z
2024-05-01T12:42:39Z,42.805,6.029,13.3043,4.60157,2470.81,2024-5-01T14:45:21Z
2024-05-01T12:45:42Z,42.805,6.029,13.3040,4.60163,2470.81,2024-5-01T14:48:24Z
2024-05-01T12:48:45Z,42.805,6.029,13.3043,4.60148,2470.847,2024-5-01T14:51:27Z
2024-05-01T12:51:48Z,42.805,6.029,13.3039,4.60150,2470.81,2024-5-01T14:54:30Z
2024-05-01T12:54:51Z,42.805,6.029,13.3043,4.60152,2470.81,2024-5-01T14:57:33Z
2024-05-01T12:57:55Z,42.805,6.029,13.3043,4.60145,2470.833,2024-5-01T15:00:36Z
2024-05-01T13:00:58Z,42.805,6.029,13.3041,4.60163,2470.833,2024-5-01T15:03:39Z
2024-05-01T13:04:01Z,42.805,6.029,13.3041,4.60173,2470.787,2024-5-01T15:06:42Z
2024-05-01T13:07:04Z,42.805,6.029,13.3042,4.60173,2470.824,2024-5-01T15:09:45Z
2024-05-01T13:10:07Z,42.805,6.029,13.3088,4.60180,2470.787,2024-5-01T15:12:48Z
2024-05-01T13:13:10Z,42.805,6.029,13.3118,4.60228,2470.787,2024-5-01T15:15:51Z
2024-05-01T13:16:13Z,42.805,6.029,13.3121,4.60185,2470.81,2024-5-01T15:18:55Z
2024-05-01T13:19:16Z,42.805,6.029,13.3120,4.60183,2470.824,2024-5-01T15:21:58Z
2024-05-01T13:22:19Z,42.805,6.029,13.3115,4.60165,2470.777,2024-5-01T15:25:01Z
2024-05-01T13:25:22Z,42.805,6.029,13.3108,4.60180,2470.787,2024-5-01T15:28:04Z
2024-05-01T13:28:25Z,42.805,6.029,13.3119,4.60163,2470.763,2024-5-01T15:31:07Z
2024-05-01T13:31:28Z,42.805,6.029,13.3103,4.60176,2470.787,2024-5-01T15:34:10Z
2024-05-01T13:34:32Z,42.805,6.029,13.3104,4.60164,2470.8,2024-5-01T15:37:13Z
2024-05-01T13:37:35Z,42.805,6.029,13.3109,4.60194,2470.81,2024-5-01T15:40:16Z
2024-05-01T13:40:38Z,42.805,6.029,13.3107,4.60175,2470.81,2024-5-01T15:43:19Z
2024-05-01T13:43:41Z,42.805,6.029,13.3109,4.60168,2470.787,2024-5-01T15:46:22Z
2024-05-01T13:46:44Z,42.805,6.029,13.3111,4.60185,2470.787,2024-5-01T15:49:25Z
2024-05-01T13:49:47Z,42.805,6.029,13.3118,4.60185,2470.787,2024-5-01T15:52:28Z
2024-05-01T13:52:50Z,42.805,6.029,13.3118,4.60163,2470.8,2024-5-01T15:55:31Z
2024-05-01T13:55:53Z,42.805,6.029,13.3115,4.60178,2470.8,2024-5-01T15:58:35Z
2024-05-01T13:58:56Z,42.805,6.029,13.3107,4.60167,2470.787,2024-5-01T16:01:38Z
2024-05-01T14:01:59Z,42.805,6.029,13.3095,4.60168,2470.763,2024-5-01T16:04:41Z
2024-05-01T14:05:02Z,42.805,6.029,13.3103,4.60183,2470.787,2024-5-01T16:07:44Z
2024-05-01T14:08:05Z,42.805,6.029,13.3104,4.60173,2470.777,2024-5-01T16:10:47Z
2024-05-01T14:11:08Z,42.805,6.029,13.3108,4.60180,2470.81,2024-5-01T16:13:50Z
2024-05-01T14:14:12Z,42.805,6.029,13.3093,4.60168,2470.763,2024-5-01T16:16:53Z
2024-05-01T14:17:15Z,42.805,6.029,13.3124,4.60176,2470.777,2024-5-01T16:19:56Z
2024-05-01T14:20:18Z,42.805,6.029,13.3104,4.60210,2470.824,2024-5-01T16:22:59Z
2024-05-01T14:23:21Z,42.805,6.029,13.3081,4.60163,2470.763,2024-5-01T16:26:02Z
2024-05-01T14:26:24Z,42.805,6.029,13.3088,4.60180,2470.81,2024-5-01T16:29:05Z
2024-05-01T14:29:27Z,42.805,6.029,13.3082,4.60172,2470.8,2024-5-01T16:32:08Z
2024-05-01T14:32:30Z,42.805,6.029,13.3085,4.60173,2470.81,2024-5-01T16:35:12Z
2024-05-01T14:35:33Z,42.805,6.029,13.3085,4.60155,2470.8,2024-5-01T16:38:15Z
2024-05-01T14:38:36Z,42.805,6.029,13.3079,4.60191,2470.787,2024-5-01T16:41:18Z
2024-05-01T14:41:39Z,42.805,6.029,13.3096,4.60167,2470.787,2024-5-01T16:44:21Z
2024-05-01T14:44:42Z,42.805,6.029,13.3075,4.60188,2470.787,2024-5-01T16:47:24Z
2024-05-01T14:47:45Z,42.805,6.029,13.3074,4.60176,2470.787,2024-5-01T16:50:27Z
2024-05-01T14:50:49Z,42.805,6.029,13.3089,4.60174,2470.8,2024-5-01T16:53:30Z
2024-05-01T14:53:52Z,42.805,6.029,13.3057,4.60177,2470.81,2024-5-01T16:56:33Z
2024-05-01T14:56:55Z,42.805,6.029,13.3076,4.60184,2470.777,2024-5-01T16:59:36Z
2024-05-01T14:59:58Z,42.805,6.029,13.3104,4.60175,2470.787,2024-5-01T17:02:39Z
2024-05-01T15:03:01Z,42.805,6.029,13.3095,4.60168,2470.8,2024-5-01T17:05:42Z
2024-05-01T15:06:04Z,42.805,6.029,13.3092,4.60173,2470.8,2024-5-01T17:08:45Z
2024-05-01T15:09:07Z,42.805,6.029,13.3092,4.60172,2470.777,2024-5-01T17:11:49Z
2024-05-01T15:12:10Z,42.805,6.029,13.3091,4.60173,2470.81,2024-5-01T17:14:52Z
2024-05-01T15:15:13Z,42.805,6.029,13.3098,4.60165,2470.787,2024-5-01T17:17:55Z
2024-05-01T15:18:16Z,42.805,6.029,13.3092,4.60167,2470.763,2024-5-01T17:20:58Z
2024-05-01T15:21:19Z,42.805,6.029,13.3118,4.60157,2470.824,2024-5-01T17:24:01Z
2024-05-01T15:24:22Z,42.805,6.029,13.3106,4.60167,2470.763,2024-5-01T17:27:04Z
2024-05-01T15:27:25Z,42.805,6.029,13.3092,4.60157,2470.824,2024-5-01T17:30:07Z
2024-05-01T15:30:29Z,42.805,6.029,13.3085,4.60164,2470.777,2024-5-01T17:33:10Z
2024-05-01T15:33:32Z,42.805,6.029,13.3087,4.60160,2470.787,2024-5-01T17:36:13Z
2024-05-01T15:36:35Z,42.805,6.029,13.3076,4.60175,2470.8,2024-5-01T17:39:16Z